www.pogodaiklimat.ru
ПОГОДА в Ларами
Время
и дата
15:53 22.05
16:53 22.05
17:06 22.05
17:53 22.05
18:53 22.05
19:53 22.05
20:53 22.05
21:29 22.05
21:53 22.05
22:10 22.05
22:53 22.05
23:28 22.05
23:53 22.05
00:53 23.05
01:53 23.05
02:53 23.05
03:17 23.05
03:53 23.05
04:36 23.05
04:48 23.05
04:53 23.05
05:14 23.05
05:25 23.05
05:53 23.05
06:10 23.05
06:18 23.05
06:25 23.05
06:29 23.05
06:46 23.05
06:53 23.05
07:03 23.05
07:13 23.05
07:53 23.05
08:53 23.05
09:53 23.05
10:15 23.05
10:23 23.05
10:32 23.05
10:39 23.05
10:51 23.05
10:53 23.05
11:53 23.05
12:02 23.05
12:53 23.05
13:53 23.05
14:53 23.05
15:53 23.05
16:53 23.05
Ветер
(напр.,м/с)
Видим. Явления Облачность Т
(С)
Тd
(С)
f
(%)
Тe
(С)
Тes
(С)
Комфортность P
(гПа)
Po
(гПа)
Тmin
(С)
Tmax
(С)
R
(мм)
R24
(мм)
S
(см)
СВ 2
{4}
16 км 5/5 1800 м +11.1 -3.9 35 +9 +12 1015.8 778.0
Ю 3
{5}
16 км слабый дождь 10/10 1800 м +5.0 +1.1 76 0 0 1018.6 778.5 +5.0 +11.1
Ю 3 16 км слабый дождь 10/10 1500 м +5.0 +1.1 76 0 0 778.5
Ю 3 16 км 10/0 2100 м
[Ac]
+5.6 +0.6 70 +1 +1 1017.6 778.3
ЮВ 2 16 км 8/0 2850 м
[Ac]
+5.0 +1.1 76 +1 +1 1016.8 778.8
Ю 3 16 км 10/0 2400 м
[Ac]
+5.0 +0.6 73 0 0 1016.2 778.8
Ю 2 16 км 10/2 1500 м
[Ac]
+5.0 +0.6 73 +1 +1 1016.7 779.3
З 2 16 км слабый дождь 10/10 660 м +5.0 +0.6 73 +1 +1 779.8
ЮЗ 1 13 км слабый дождь 10/10 720 м +3.9 +1.1 82 +1 +1 1017.4 779.8
ЮЗ 1 16 км слабый дождь 10/10 600 м +3.3 +1.7 89 -1 -1 779.8
ЮВ 1 16 км 8/8 660 м
[Ac]
+3.3 +1.7 89 0 0 1016.0 779.3 +3.3 +6.1 0.5
Ю 3 16 км 8/8 540 м +2.8 +1.7 92 -4 -4 778.3
Ю 2 16 км 5/5 540 м +2.8 +1.7 92 -3 -3 1014.8 778.0
Ю 3 16 км ясно +1.7 +1.1 96 -5 -5 1013.8 777.2
Ю 3 16 км 2/0 3300 м
[Ac]
+1.1 +0.6 96 -5 -5 1013.4 776.7
Ю 4 16 км 2/2 270 м +1.7 +0.6 92 -5 -5 1012.7 776.5
Ю 2 16 км 8/8 210 м +2.2 +1.1 92 -3 -3 776.5
Ю 2 16 км 10/10 180 м +2.8 +1.7 92 -3 -3 1011.3 776.2
ЮВ 2 16 км слабый дождь 10/10 120 м +2.8 +2.2 96 -2 -2 776.2
ЮВ 2 16 км слабый дождь 10/10 180 м +3.0 +2.0 93 -2 -2 776.2
Ю 2 16 км слабый дождь 10/10 180 м +2.8 +2.2 96 -2 -2 1013.4 776.2 +1.1 +3.3 0.5
Ю 2 16 км 10/10 240 м +2.2 +1.7 96 -3 -3 776.2
СЗ 2 13 км слабый дождь 10/10 210 м +2.2 +1.7 96 -3 -3 776.5
СЗ 2 16 км 10/10 180 м +2.2 +1.7 96 -3 -3 1014.5 777.0
СЗ 4 3 км слабый снег, дымка 10/10 450 м +0.6 0.0 96 -7 -7 777.0
СЗ 2 2 км слабый снег, дымка 10/10 330 м +0.6 0.0 96 -6 -6 777.2
СЗ 2 1 км слабый снег, дымка 10/10 120 м 0.0 0.0 100 -6 -6 777.2
СЗ 2 800 м снег, туман 10/10 120 м 0.0 0.0 100 -6 -6 777.5
нст 1 2 км слабый снег, дымка 10/10 90 м 0.0 0.0 100 -5 -5 777.2
С 2 5 км слабый снег, дымка 10/10 120 м +0.6 0.0 96 -5 -5 1015.5 777.2
С 2 14 км 10/8 120 м
[Ac]
+0.6 0.0 96 -5 -5 777.2
СЗ 3 16 км 10/8 270 м
[Ac]
+0.6 0.0 96 -6 -6 777.5
СЗ 5
{7}
16 км 8/8 270 м +2.2 +0.6 89 -6 -6 1015.1 777.5 1.3
СЗ 4
{5}
16 км 10/10 1350 м +1.1 +0.6 96 -6 -6 1015.6 777.5
СЗ 2 10 км слабый снег, дымка 10/10 1140 м +1.1 0.0 92 -5 -5 1016.2 777.8
З 3 10 км слабый снег, дымка 10/10 210 м +2.2 +1.1 92 -4 -4 777.8
З 3 4 км слабый снег, дымка 10/10 270 м +1.7 +0.6 92 -5 -5 777.8
З 3 4 км слабый снег, дымка 10/10 270 м +1.7 +0.6 92 -5 -5 777.8
З 2 4 км слабый снег, дымка 10/10 180 м +1.7 +0.6 92 -3 -3 777.8
З 2 8 км слабый снег, дымка 10/10 180 м +2.0 +1.0 93 -3 -3 778.0
З 2 10 км слабый снег, дымка 10/10 180 м +1.7 +1.1 96 -4 -4 1016.5 778.0 +2.8 1.5
ЮЗ 2 16 км 10/10 390 м +3.3 +1.7 89 -1 -1 1016.3 778.0
ЮЗ 1 16 км 10/10 390 м +3.3 +1.1 85 -1 -1 778.0
нст 1 16 км 10/10 720 м +5.0 +2.2 82 +2 +2 1015.9 777.8
В 1 16 км 10/10 840 м +6.1 +1.1 70 +4 +4 1015.3 777.5 0.3
С 4
{5}
16 км 8/5 750 м
[Ac]
+6.1 +1.7 73 +1 +2 1015.6 777.8
С 4 16 км 10/2 1320 м
[Ac]
+6.1 +0.6 68 +1 +1 1015.1 777.8
СЗ 2 16 км 10/0 2700 м
[Ac]
+7.2 0.0 60 +4 +6 1015.1 778.0 +1.7 +8.3 0.3
Местоположение метеостанции Laramie Regional Airport: широта 41.3165 долгота -105.6729 высота над уровнем моря 2216 м.
В архиве по умолчанию представлена погода в Ларами за последние 1-2 суток. Обновление информации о фактической погоде в базе происходит ежечасно! Архивные данные за месяц целиком и за предыдущие месяцы Вы можете получить, выбрав интересующий диапазон дат из раскрывающегося списка и нажав кнопку "Ввод!".
Внимание! Архив погоды МЕТАР в базе сайта по станциям, не включенным в климатический монитор, хранится не более 60 дней. Нет смысла пытаться выбрать более раннюю дату.
*Определитесь, кто Вы:
Внимание! Время в таблицах - местное (без учета летнего времени). Для получения всемирного времени необходимо вычесть поправку, которая равна -7 ч.
Смотрите также архив погоды в соседних городах и на ближайших метеорологических станциях:
Партнеры нашего сайта:      
Пояснения к столбцам:
  • Ветер - указаны скорость ветра в м/с - средняя за 10 мин, порывы в срок и между сроками (в фигурных скобках) и направление, откуда дует ветер: С - северный,
  • СВ - северо-восточный, В - восточный, ЮВ - юго-восточный, Ю - южный, ЮЗ - юго-западный, З - западный, СЗ - северо-западный.
  • Видимость - горизонтальная дальность видимости в метрах или километрах. При видимости от 1 до 10 км при отсутствии осадков обычно наблюдается дымка, при ухудшении видимости до 1 км и менее - туман. В сухую погоду видимость может ухудшаться дымом, пылью или мглою.
  • Явления - указаны атмосферные явления, наблюдавшиеся в срок или в последний час перед сроком; фигурными скобками обозначены явления, наблюдавшиеся между сроками (за 1-3 часа до срока); квадратными скобками обозначены град или гололедные отложения с указанием их диаметра в мм.
  • Облачность - указаны через наклонную черту общая и нижняя облачность в баллах и высота нижней границы облаков в метрах; квадратными скобками обозначены формы облаков: Ci - перистые, Cs - перисто-слоистые, Cc - перисто-кучевые, Ac - высококучевые, As - высокослоистые, Sc - слоисто-кучевые, Ns - слоисто-дождевые, Cu - кучевые, Cb - кучево-дождевые. Подробнее классификацию облаков см. в Атласе облаков (PDF).
  • T - Температура воздуха - температура, измеренная на высоте 2 м над землей.
  • Td - Температура точки росы - температура, при понижении до которой содержащийся в воздухе водяной пар достигнет насыщения.
  • f - Относительная влажность воздуха - влажноcть воздуха, измеренная на высоте 2 м над землей.
  • Te - Эффективная температура - температура, которую ощущает одетый по сезону человек в тени. Характеристика душности погоды. При расчете учитывается влияние влажности воздуха и скорости ветра на теплоощущения человека.
  • Tes - Эффективная температура на солнце - температура, которую ощущает человек, с поправкой на солнечный нагрев. Характеристика знойности погоды. Зависит от высоты солнца над горизонтом, облачности и скорости ветра. Ночью, в пасмурную погоду, а также при ветре 12 м/с и более поправка равна нулю.
  • P - Атмосферное давление - приведенное к уровню моря атмосферное давление.
  • Po - Атмосферное давление - измеренное на уровне метеостанции атмосферное давление.
  • Tmin - Минимальная температура - минимум температуры воздуха на высоте 2 м над землей.
  • Tmax - Максимальная температура - максимум температуры воздуха на высоте 2 м над землей.
  • R - Количество осадков - Количество выпавших осадков за период времени, мм. При наведении курсора мыши на число - период времени, за который выпало указанное количество осадков.
  • R24 - Количество осадков - Количество выпавших осадков за 24 часа, мм.
  • S - Снежный покров - Высота снежного покрова, см. При наведении курсора мыши на число - состояние снежного покрова и степень покрытия местности в баллах.